Location: Berlin
(42.3812°N, 71.6370°W)
Time: 06:06:11
(UTC+00:00)

Cosmos 1110 Rocket - Pass Details

Date: 15 November 2025
Orbit: 748 x 777 km, 74.0° (Epoch: 09 December)

Event Time Altitude Azimuth Distance (km) Brightness Sun altitude
Rises 10:55:50 0° 220° (SW) 3,233 7.0 -8.0°
Reaches altitude 10° 10:58:21 10° 228° (SW) 2,314 6.2 -7.6°
Maximum altitude 11:03:16 39° 297° (WNW) 1,152 4.5 -6.7°
Drops below altitude 10° 11:08:13 10° 6° (N) 2,335 6.4 -5.9°
Sets 11:10:47 0° 14° (NNE) 3,267 7.2 -5.4°
